TimeCDT,TemperatureF,Dew PointF,Humidity,Sea Level PressureIn,VisibilityMPH,Wind Direction,Wind SpeedMPH,Gust SpeedMPH,PrecipitationIn,Events,Conditions,WindDirDegrees,DateUTC
12:15 AM,72.0,66.9,84,30.14,7.0,ESE,8.1,-,0.00,Rain,Light Rain,110,2013-10-14 05:15:00
12:53 AM,71.1,68.0,90,30.11,6.0,East,5.8,-,0.01,Rain,Light Rain,100,2013-10-14 05:53:00
1:14 AM,71.1,68.0,90,30.13,7.0,East,5.8,-,0.01,Rain,Light Rain,100,2013-10-14 06:14:00
1:53 AM,71.1,68.0,90,30.11,7.0,East,8.1,-,0.01,Rain,Light Rain,100,2013-10-14 06:53:00
2:48 AM,69.8,66.2,88,30.12,6.0,East,9.2,-,0.02,Rain,Light Rain,100,2013-10-14 07:48:00
2:53 AM,70.0,68.0,93,30.10,6.0,East,8.1,-,0.03,Rain,Light Rain,100,2013-10-14 07:53:00
3:53 AM,70.0,66.9,90,30.07,6.0,East,9.2,-,0.04,Rain,Light Rain,100,2013-10-14 08:53:00
4:53 AM,70.0,68.0,93,30.06,5.0,ESE,9.2,-,0.03,Rain,Light Rain,120,2013-10-14 09:53:00
5:53 AM,70.0,68.0,93,30.05,4.0,SE,11.5,-,0.04,Rain,Light Rain,130,2013-10-14 10:53:00
6:53 AM,70.0,68.0,93,30.05,6.0,SE,9.2,-,0.06,Rain,Light Rain,130,2013-10-14 11:53:00
7:53 AM,70.0,68.0,93,30.05,4.0,ESE,9.2,-,0.08,Rain,Light Rain,120,2013-10-14 12:53:00
8:53 AM,71.1,68.0,90,30.05,8.0,SE,11.5,-,0.03,Rain,Light Rain,140,2013-10-14 13:53:00
9:29 AM,71.1,69.1,93,30.06,4.0,SE,13.8,-,0.00,Rain,Light Rain,130,2013-10-14 14:29:00
9:53 AM,71.1,69.1,93,30.04,1.8,SSE,13.8,-,0.02,Rain,Heavy Rain,150,2013-10-14 14:53:00
10:02 AM,71.1,69.1,93,30.06,1.8,SE,12.7,-,0.02,Rain,Light Rain,140,2013-10-14 15:02:00
10:12 AM,71.1,69.1,93,30.06,2.5,SE,16.1,-,0.03,Rain,Light Rain,140,2013-10-14 15:12:00
10:22 AM,71.1,69.1,93,30.06,3.0,SE,12.7,-,0.03,Rain,Light Rain,140,2013-10-14 15:22:00
10:53 AM,72.0,70.0,93,30.03,4.0,SE,12.7,-,0.04,Rain,Light Rain,140,2013-10-14 15:53:00
11:43 AM,73.0,70.0,90,30.05,2.5,SSE,12.7,-,0.01,Rain,Light Rain,150,2013-10-14 16:43:00
11:49 AM,71.6,69.8,94,30.04,1.2,SSE,8.1,-,0.04,Rain,Heavy Rain,160,2013-10-14 16:49:00
11:53 AM,72.0,70.0,93,30.02,1.2,SSE,10.4,-,0.06,Rain,Heavy Rain,150,2013-10-14 16:53:00
12:10 PM,73.0,70.0,90,30.03,3.0,SSE,12.7,-,0.05,Rain,Light Rain,160,2013-10-14 17:10:00
12:21 PM,73.0,70.0,90,30.03,1.8,SSE,12.7,-,0.06,Rain,Heavy Rain,160,2013-10-14 17:21:00
12:38 PM,73.0,70.0,90,30.02,3.0,SSE,13.8,-,0.12,Rain,Light Rain,160,2013-10-14 17:38:00
12:42 PM,73.0,71.1,93,30.02,2.5,SSE,13.8,-,0.12,Rain,Light Rain,160,2013-10-14 17:42:00
12:51 PM,73.4,71.6,94,30.01,4.0,SSE,12.7,-,0.12,Rain,Light Rain,150,2013-10-14 17:51:00
12:52 PM,73.0,71.1,93,29.99,5.0,SSE,12.7,-,0.12,Rain,Light Rain,150,2013-10-14 17:52:00
12:59 PM,73.0,71.1,93,30.01,2.0,SSE,12.7,-,0.01,Rain,Rain,150,2013-10-14 17:59:00
1:06 PM,73.0,71.1,93,30.00,2.0,SSE,13.8,-,0.03,Rain,Rain,150,2013-10-14 18:06:00
1:15 PM,73.0,71.1,93,30.00,3.0,SSE,12.7,-,0.04,Rain,Light Rain,150,2013-10-14 18:15:00
1:53 PM,73.9,71.1,91,29.95,2.0,SSE,12.7,-,0.06,Rain,Light Rain,150,2013-10-14 18:53:00
2:04 PM,73.9,71.1,91,29.97,4.0,SSE,13.8,-,0.00,,Overcast,160,2013-10-14 19:04:00
2:27 PM,73.9,72.0,93,29.96,7.0,SSE,11.5,-,0.00,,Overcast,160,2013-10-14 19:27:00
2:53 PM,73.9,72.0,93,29.93,4.0,SSE,10.4,-,0.00,,Overcast,160,2013-10-14 19:53:00
3:53 PM,73.0,69.1,87,29.91,6.0,South,21.9,26.5,0.00,Rain,Light Rain,170,2013-10-14 20:53:00
4:53 PM,73.0,70.0,90,29.90,10.0,South,13.8,-,0.00,,Overcast,170,2013-10-14 21:53:00
5:11 PM,73.9,71.1,91,29.92,10.0,South,12.7,-,N/A,,Overcast,170,2013-10-14 22:11:00
5:28 PM,73.9,70.0,87,29.93,10.0,South,11.5,-,N/A,,Overcast,170,2013-10-14 22:28:00
5:53 PM,73.9,70.0,87,29.91,10.0,SSE,13.8,-,N/A,,Overcast,160,2013-10-14 22:53:00
6:53 PM,73.9,71.1,91,29.92,10.0,SE,8.1,-,N/A,,Overcast,140,2013-10-14 23:53:00
7:53 PM,73.9,70.0,87,29.92,10.0,SSE,11.5,-,N/A,,Overcast,160,2013-10-15 00:53:00
8:18 PM,73.9,70.0,87,29.94,10.0,SSE,9.2,-,N/A,,Overcast,160,2013-10-15 01:18:00
8:53 PM,73.0,69.1,87,29.92,10.0,SSE,13.8,-,N/A,,Overcast,150,2013-10-15 01:53:00
9:53 PM,73.0,70.0,90,29.93,10.0,SSE,11.5,-,N/A,,Overcast,160,2013-10-15 02:53:00
10:53 PM,73.0,70.0,90,29.93,10.0,SSE,9.2,-,N/A,,Overcast,150,2013-10-15 03:53:00
11:53 PM,73.0,70.0,90,29.91,8.0,SSE,10.4,-,N/A,,Mostly Cloudy,160,2013-10-15 04:53:00